Date,TemperatureHighF,TemperatureAvgF,TemperatureLowF,DewpointHighF,DewpointAvgF,DewpointLowF,HumidityHigh,HumidityAvg,HumidityLow,PressureMaxIn,PressureMinIn,WindSpeedMaxMPH,WindSpeedAvgMPH,GustSpeedMaxMPH,PrecipitationSumIn
2013-5-1,86.5,74.1,60.4,56.9,50.8,45.4,74,48,25,30.15,29.97,19,3,19,0.12
2013-5-2,85.3,70.7,60.1,53.6,51.1,47.4,73,53,30,30.18,30.03,12,2,12,0.00
2013-5-3,81.7,68.5,55.4,51.9,47.1,35.0,82,50,29,30.09,29.94,19,3,19,0.00
2013-5-4,76.1,67.2,58.3,43.8,38.1,32.0,50,35,26,30.06,29.97,15,4,15,0.00
2013-5-5,77.4,64.9,54.9,42.5,36.1,28.0,48,36,22,30.09,29.97,13,2,13,0.00
2013-5-6,75.7,59.8,51.3,41.3,34.9,30.4,53,41,22,30.06,30.00,9,1,9,0.00
2013-5-14,62.4,60.8,59.9,51.6,50.1,48.6,72,68,61,29.71,29.65,6,0,6,0.00
2013-5-15,80.2,69.2,57.0,56.8,45.1,35.5,79,45,25,29.82,29.59,17,3,17,0.00
2013-5-16,82.9,66.8,49.1,47.1,41.0,35.6,76,44,22,30.00,29.82,12,1,12,0.00
2013-5-17,69.3,61.1,52.3,42.1,38.6,34.4,55,44,33,30.12,30.00,12,3,12,0.00
2013-5-18,83.8,68.7,55.8,50.5,44.8,40.7,61,44,29,30.12,29.97,10,2,10,0.00
2013-5-19,88.2,74.3,58.5,58.7,49.7,40.9,67,43,31,30.00,29.79,14,2,14,0.00
2013-5-20,88.7,76.3,68.5,73.1,60.6,50.9,91,60,33,29.85,29.71,26,3,26,0.99
2013-5-21,80.1,72.4,63.1,64.7,60.3,54.7,96,68,45,29.76,29.68,15,2,15,0.33
2013-5-22,64.8,61.7,58.8,59.5,57.8,56.2,91,87,82,29.71,29.65,6,1,6,0.33
2013-5-23,58.8,52.6,43.0,56.6,49.0,34.2,98,88,68,30.21,29.71,17,3,17,0.58
2013-5-24,63.9,49.8,36.3,38.2,34.3,30.7,87,58,36,30.36,30.21,13,2,13,0.00
2013-5-25,66.7,54.5,40.3,39.5,34.3,28.8,85,51,26,30.39,30.24,10,1,10,0.00
2013-5-26,59.2,50.0,46.4,38.9,36.5,32.7,73,61,38,30.30,30.21,7,1,7,0.00
2013-5-27,60.6,54.2,51.1,51.6,41.3,33.0,98,65,40,30.21,29.94,15,3,15,0.12
2013-5-28,75.4,61.9,52.0,68.5,60.0,51.2,98,94,67,29.94,29.76,10,2,10,1.75
2013-5-29,76.8,66.6,61.2,68.0,63.0,60.3,98,90,57,29.94,29.79,10,1,10,0.16
2013-5-30,86.2,76.8,64.9,66.2,62.4,58.6,92,64,42,29.97,29.85,20,3,20,0.16
2013-5-31,80.1,73.6,65.1,67.9,62.1,55.8,95,69,46,29.91,29.76,19,3,19,0.25